N1JFY Weather Reports


Display with metric or nautical units.
time (UTC)temp
F
wind
direction
speed
MPH
gust
MPH
rain 1hr
in
rain 24hr
in
rain mn
in
humidity
%
barometer
mb
20260831174501 69 0.0 0.0 0.00 0.00 0.00 53 1015.6
20260831173059 69 0.0 0.0 0.00 0.00 0.00 54 1015.5
20260831171556 68 0.0 0.0 0.00 0.00 0.00 54 1015.5
20260831170054 68 0.0 0.0 0.00 0.00 0.00 56 1015.6
20260831164604 68 0.0 0.0 0.00 0.00 0.00 55 1015.5
20260831163051 67 0.0 0.0 0.00 0.00 0.00 54 1015.6
20260831161549 67 0.0 0.0 0.00 0.00 0.00 55 1015.6
20260831160048 66 0.0 0.0 0.00 0.00 0.00 55 1015.7
20260831154550 66 0.0 0.0 0.00 0.00 0.00 60 1015.9
20260831153043 65 0.0 0.0 0.00 0.00 0.00 60 1016.0
20260831151541 65 0.0 0.0 0.00 0.00 0.00 60 1016.2
20260831150040 64 0.0 0.0 0.00 0.00 0.00 61 1016.3
20260831144537 63 0.0 0.0 0.00 0.00 0.00 64 1016.5
20260831143035 62 0.0 0.0 0.00 0.00 0.00 63 1016.6
20260831141535 62 0.0 0.0 0.00 0.00 0.00 64 1016.7
20260831140039 61 0.0 0.0 0.00 0.00 0.00 65 1016.7
20260831134528 60 0.0 0.0 0.00 0.00 0.00 67 1016.6
20260831133026 60 0.0 0.0 0.00 0.00 0.00 67 1016.6
20260831131535 59 0.0 0.0 0.00 0.00 0.00 68 1016.3
20260831130034 59 0.0 0.0 0.00 0.00 0.00 69 1016.3
20260831124519 58 0.0 0.0 0.00 0.00 0.00 71 1016.1
20260831123015 57 0.0 0.0 0.00 0.00 0.00 74 1016.4
20260831121513 56 0.0 0.0 0.00 0.00 0.00 75 1016.5
20260831120010 55 0.0 0.0 0.00 0.00 0.00 75 1016.4
20260831114508 54 0.0 0.0 0.00 0.00 0.00 76 1016.3
20260831113007 53 0.0 0.0 0.00 0.00 0.00 77 1016.0
20260831111512 53 0.0 0.0 0.00 0.00 0.00 77 1015.9
20260831110006 53 0.0 0.0 0.00 0.00 0.00 77 1015.6
20260831104502 52 0.0 0.0 0.00 0.00 0.00 78 1015.5
20260831103113 52 0.0 0.0 0.00 0.00 0.00 78 1015.4
20260831101603 52 0.0 0.0 0.00 0.00 0.00 79 1015.2
20260831100059 51 0.0 0.0 0.00 0.00 0.00 80 1015.0
20260831094600 51 0.0 0.0 0.00 0.00 0.00 81 1015.1
20260831093055 51 0.0 0.0 0.00 0.00 0.00 80 1015.0
20260831091554 51 0.0 0.0 0.00 0.00 0.00 80 1014.8
20260831090104 52 0.0 0.0 0.00 0.00 0.00 80 1014.8
20260831084549 52 0.0 0.0 0.00 0.00 0.00 79 1014.6
20260831083050 52 0.0 0.0 0.00 0.00 0.00 79 1014.7
20260831081557 52 0.0 0.0 0.00 0.00 0.00 79 1014.6
20260831080047 52 0.0 0.0 0.00 0.00 0.00 79 1014.6
20260831074545 52 0.0 0.0 0.00 0.00 0.00 79 1014.5
20260831073044 52 0.0 0.0 0.00 0.00 0.00 80 1014.4
20260831071545 52 0.0 0.0 0.00 0.00 0.00 80 1014.4
20260831070041 53 0.0 0.0 0.00 0.00 0.00 80 1014.4
20260831064539 53 0.0 0.0 0.00 0.00 0.00 79 1014.2
20260831063037 53 0.0 0.0 0.00 0.00 0.00 79 1014.2
20260831061536 53 0.0 0.0 0.00 0.00 0.00 80 1013.9
20260831060034 53 0.0 0.0 0.00 0.00 0.00 80 1013.7
20260831054533 53 0.0 0.0 0.00 0.00 0.00 81 1013.9
20260831053032 53 0.0 0.0 0.00 0.00 0.00 81 1013.9
20260831051535 53 0.0 0.0 0.00 0.00 0.00 82 1013.8
20260831050030 54 0.0 0.0 0.00 0.00 0.00 82 1013.8
20260831044529 54 0.0 0.0 0.00 0.00 0.00 83 1013.7
20260831043026 54 0.0 0.0 0.00 0.00 0.00 83 1013.7
20260831041525 55 0.0 0.0 0.00 0.00 0.00 83 1013.6
20260831040026 55 0.0 0.0 0.00 0.00 0.00 83 1013.4
20260831034521 55 0.0 0.0 0.00 0.00 0.00 82 1013.2
20260831033023 56 0.0 0.0 0.00 0.00 0.00 81 1013.1
20260831031519 56 0.0 0.0 0.00 0.00 0.00 81 1013.1
20260831030019 56 0.0 0.0 0.00 0.00 0.00 81 1013.0
20260831024521 57 0.0 0.0 0.00 0.00 0.00 81 1012.9
20260831023018 57 0.0 0.0 0.00 0.00 0.00 80 1012.9
20260831021526 58 0.0 0.0 0.00 0.00 0.00 79 1012.9
20260831020022 58 0.0 0.0 0.00 0.00 0.00 79 1012.7
20260831014526 58 0.0 0.0 0.00 0.00 0.00 80 1012.2
20260831013017 58 0.0 0.0 0.00 0.00 0.00 80 1012.1
20260831011524 58 0.0 0.0 0.00 0.00 0.00 79 1012.0
20260831010016 59 0.0 0.0 0.00 0.00 0.00 79 1012.0
20260831004515 59 0.0 0.0 0.00 0.00 0.00 78 1012.0
20260831003014 60 0.0 0.0 0.00 0.00 0.00 76 1012.1
20260831001514 60 0.0 0.0 0.00 0.00 0.00 76 1011.9
20260831000014 60 0.0 0.0 0.00 0.00 0.00 75 1011.7
20260830234513 60 0.0 0.0 0.00 0.00 0.00 73 1011.2
20260830233013 61 13 0.0 0.0 0.00 0.00 0.00 73 1011.2
20260830231513 61 19 0.0 0.0 0.00 0.00 0.00 71 1011.5
20260830230011 62 345 0.0 0.0 0.00 0.00 0.00 70 1011.5
20260830224511 63 334 0.0 0.0 0.00 0.00 0.00 69 1011.5
20260830223011 65 5 0.0 0.0 0.00 0.00 0.00 66 1011.0
20260830221510 69 284 0.0 0.0 0.00 0.00 0.00 52 1010.6
20260830220007 70 278 0.0 0.0 0.00 0.00 0.00 50 1010.2
20260830214502 70 278 0.0 0.0 0.00 0.00 0.00 50 1010.2
20260830213058 70 278 0.0 0.0 0.00 0.00 0.00 50 1010.2
20260830211559 71 273 0.0 0.0 0.00 0.00 0.00 49 1010.1
20260830210001 71 267 0.0 0.0 0.00 0.00 0.00 49 1010.0
20260830203042 72 262 0.0 0.0 0.00 0.00 0.00 46 1010.0
20260830201540 72 360 0.0 0.0 0.00 0.00 0.00 46 1009.9
20260830200045 73 360 0.0 0.0 0.00 0.00 0.00 47 1009.9
20260830194537 72 266 0.0 0.0 0.00 0.00 0.00 49 1010.1
20260830193035 74 242 0.0 0.0 0.00 0.00 0.00 44 1010.2
20260830191534 74 238 0.0 0.0 0.00 0.00 0.00 46 1010.4
20260830190043 75 246 0.0 0.0 0.00 0.00 0.00 45 1010.5
20260830184530 74 360 0.0 0.0 0.00 0.00 0.00 45 1010.8
20260830183028 74 360 0.0 0.0 0.00 0.00 0.00 45 1011.1
20260830181525 73 256 0.0 0.0 0.00 0.00 0.00 47 1011.6
20260830180028 73 286 0.0 0.0 0.00 0.00 0.00 49 1011.7